TimeMST,TemperatureF,Dew PointF,Humidity,Sea Level PressureIn,VisibilityMPH,Wind Direction,Wind SpeedMPH,Gust SpeedMPH,PrecipitationIn,Events,Conditions,WindDirDegrees,DateUTC
12:12 AM,5.0,-4.0,66,29.94,-9999.0,West,19.6,-,N/A,,Overcast,270,2013-02-27 07:12:00
12:32 AM,3.2,-4.0,72,29.94,-9999.0,West,18.4,-,N/A,,Overcast,270,2013-02-27 07:32:00
12:52 AM,3.2,-4.0,72,29.94,-9999.0,West,18.4,-,N/A,,Overcast,280,2013-02-27 07:52:00
1:12 AM,3.2,-5.8,66,29.94,-9999.0,West,19.6,-,N/A,,Overcast,280,2013-02-27 08:12:00
1:32 AM,3.2,-5.8,66,29.94,-9999.0,West,19.6,-,N/A,,Overcast,280,2013-02-27 08:32:00
1:52 AM,3.2,-5.8,66,29.94,-9999.0,West,18.4,-,N/A,,Overcast,270,2013-02-27 08:52:00
2:12 AM,1.4,-5.8,72,29.94,-9999.0,West,18.4,-,N/A,,Overcast,270,2013-02-27 09:12:00
2:32 AM,1.4,-5.8,72,29.94,-9999.0,West,17.3,-,N/A,,Scattered Clouds,260,2013-02-27 09:32:00
2:52 AM,1.4,-5.8,72,29.94,-9999.0,West,17.3,-,N/A,,Clear,260,2013-02-27 09:52:00
3:12 AM,1.4,-5.8,72,29.94,-9999.0,West,13.8,-,N/A,,Mostly Cloudy,270,2013-02-27 10:12:00
3:32 AM,1.4,-5.8,72,29.94,-9999.0,West,15.0,-,N/A,,Mostly Cloudy,270,2013-02-27 10:32:00
3:52 AM,1.4,-5.8,72,29.95,-9999.0,West,18.4,-,N/A,,Scattered Clouds,280,2013-02-27 10:52:00
4:12 AM,1.4,-5.8,72,29.96,-9999.0,West,16.1,-,N/A,,Scattered Clouds,260,2013-02-27 11:12:00
4:32 AM,1.4,-5.8,72,29.97,-9999.0,West,19.6,-,N/A,,Overcast,260,2013-02-27 11:32:00
4:52 AM,1.4,-5.8,72,29.97,-9999.0,West,19.6,-,N/A,,Overcast,260,2013-02-27 11:52:00
5:12 AM,1.4,-5.8,72,29.98,-9999.0,West,20.7,-,N/A,,Overcast,280,2013-02-27 12:12:00
5:52 AM,1.4,-5.8,72,29.98,-9999.0,West,15.0,21.9,N/A,,Overcast,280,2013-02-27 12:52:00
6:12 AM,1.4,-5.8,72,29.99,-9999.0,WNW,20.7,-,N/A,,Overcast,290,2013-02-27 13:12:00
6:21 AM,1.4,-5.8,72,29.99,-9999.0,West,12.7,18.4,N/A,,Overcast,280,2013-02-27 13:21:00
7:27 AM,1.4,-5.8,72,30.01,-9999.0,West,18.4,-,N/A,,Overcast,280,2013-02-27 14:27:00
8:07 AM,1.4,-5.8,72,30.02,-9999.0,West,15.0,-,N/A,,Overcast,260,2013-02-27 15:07:00
8:27 AM,3.2,-5.8,66,30.02,-9999.0,West,12.7,-,N/A,,Overcast,270,2013-02-27 15:27:00
8:47 AM,3.2,-5.8,66,30.03,-9999.0,North,-9999.0,-,N/A,,Overcast,0,2013-02-27 15:47:00
9:07 AM,3.2,-4.0,72,30.04,-9999.0,West,10.4,-,N/A,,Mostly Cloudy,270,2013-02-27 16:07:00
9:47 AM,5.0,-4.0,66,30.05,-9999.0,WSW,5.8,-,N/A,,Scattered Clouds,250,2013-02-27 16:47:00
10:07 AM,5.0,-2.2,72,30.05,-9999.0,WNW,16.1,21.9,N/A,,Mostly Cloudy,290,2013-02-27 17:07:00
10:27 AM,5.0,-2.2,72,30.05,-9999.0,West,19.6,-,N/A,,Overcast,280,2013-02-27 17:27:00
10:47 AM,6.8,-0.4,72,30.05,-9999.0,West,13.8,-,N/A,,Overcast,270,2013-02-27 17:47:00
11:07 AM,6.8,-0.4,72,30.05,-9999.0,West,11.5,-,N/A,,Overcast,270,2013-02-27 18:07:00
11:26 AM,6.8,-0.4,72,30.05,-9999.0,West,10.4,19.6,N/A,,Overcast,270,2013-02-27 18:26:00
11:46 AM,8.6,-0.4,67,30.05,-9999.0,West,11.5,-,N/A,,Overcast,280,2013-02-27 18:46:00
12:06 PM,8.6,1.4,73,30.05,-9999.0,West,18.4,26.5,N/A,,Overcast,260,2013-02-27 19:06:00
12:26 PM,8.6,1.4,73,30.05,-9999.0,West,23.0,29.9,N/A,,Overcast,260,2013-02-27 19:26:00
12:46 PM,8.6,-0.4,67,30.05,-9999.0,West,27.6,34.5,N/A,,Overcast,260,2013-02-27 19:46:00
1:06 PM,8.6,-0.4,67,30.05,-9999.0,West,25.3,33.4,N/A,,Mostly Cloudy,280,2013-02-27 20:06:00
1:28 PM,8.6,1.4,73,30.03,-9999.0,North,-9999.0,-,N/A,,Scattered Clouds,0,2013-02-27 20:28:00
1:46 PM,12.2,-0.4,57,30.04,-9999.0,North,-9999.0,-,N/A,,Mostly Cloudy,0,2013-02-27 20:46:00
2:06 PM,12.2,-0.4,57,30.03,-9999.0,North,-9999.0,-,N/A,,Scattered Clouds,0,2013-02-27 21:06:00
2:26 PM,12.2,-0.4,57,30.05,10.0,North,-9999.0,-,N/A,,Scattered Clouds,0,2013-02-27 21:26:00
2:46 PM,12.2,-4.0,48,30.05,10.0,West,17.3,25.3,N/A,,Scattered Clouds,270,2013-02-27 21:46:00
3:07 PM,12.2,-2.2,53,30.05,10.0,North,-9999.0,-,N/A,,Scattered Clouds,0,2013-02-27 22:07:00
3:27 PM,14.0,-4.0,45,30.04,10.0,West,27.6,-,N/A,,Mostly Cloudy,260,2013-02-27 22:27:00
3:46 PM,12.2,-4.0,48,30.05,7.0,West,20.7,31.1,N/A,,Mostly Cloudy,270,2013-02-27 22:46:00
4:07 PM,14.0,-0.4,53,30.05,10.0,West,19.6,-,N/A,,Mostly Cloudy,280,2013-02-27 23:07:00
4:26 PM,12.2,-5.8,45,30.05,5.0,West,25.3,33.4,N/A,,Haze,280,2013-02-27 23:26:00
4:46 PM,10.4,-4.0,52,30.05,10.0,West,21.9,28.8,N/A,,Scattered Clouds,280,2013-02-27 23:46:00
5:05 PM,8.6,-5.8,52,30.06,10.0,West,19.6,27.6,N/A,,Scattered Clouds,280,2013-02-28 00:05:00
5:25 PM,8.6,-4.0,57,30.06,10.0,West,19.6,-,N/A,,Scattered Clouds,270,2013-02-28 00:25:00
5:46 PM,6.8,-2.2,67,30.06,10.0,West,23.0,-,N/A,,Scattered Clouds,280,2013-02-28 00:46:00
6:05 PM,6.8,-0.4,72,30.07,10.0,North,-9999.0,-,N/A,,Mostly Cloudy,0,2013-02-28 01:05:00
6:26 PM,6.8,-0.4,72,30.07,10.0,North,-9999.0,-,N/A,,Mostly Cloudy,0,2013-02-28 01:26:00
7:05 PM,6.8,-0.4,72,30.08,7.0,West,18.4,27.6,N/A,,Overcast,270,2013-02-28 02:05:00
7:25 PM,6.8,-0.4,72,30.08,1.8,West,28.8,34.5,N/A,Snow,Light Snow,270,2013-02-28 02:25:00
7:46 PM,6.8,-0.4,72,30.08,0.8,North,-9999.0,-,N/A,Snow,Light Snow,0,2013-02-28 02:46:00
8:05 PM,5.0,-0.4,78,30.08,1.2,West,27.6,-,N/A,Snow,Light Snow,280,2013-02-28 03:05:00
8:25 PM,5.0,-0.4,78,30.10,1.5,North,-9999.0,-,N/A,,Haze,0,2013-02-28 03:25:00
8:46 PM,5.0,-2.2,72,30.09,2.5,West,23.0,35.7,N/A,,Haze,280,2013-02-28 03:46:00
9:06 PM,5.0,-4.0,66,30.10,7.0,North,-9999.0,-,N/A,,Scattered Clouds,0,2013-02-28 04:06:00
9:26 PM,5.0,-4.0,66,30.10,10.0,West,21.9,-,N/A,,Scattered Clouds,280,2013-02-28 04:26:00
9:45 PM,5.0,-4.0,66,30.10,7.0,North,-9999.0,-,N/A,,Scattered Clouds,0,2013-02-28 04:45:00
10:05 PM,5.0,-4.0,66,30.09,10.0,West,19.6,-,N/A,,Clear,270,2013-02-28 05:05:00
10:25 PM,3.2,-4.0,72,30.09,10.0,North,-9999.0,-,N/A,,Clear,0,2013-02-28 05:25:00
10:46 PM,3.2,-4.0,72,30.08,10.0,North,-9999.0,-,N/A,,Clear,0,2013-02-28 05:46:00
11:04 PM,3.2,-5.8,66,30.09,10.0,West,17.3,-,N/A,,Clear,270,2013-02-28 06:04:00
11:25 PM,3.2,-5.8,66,30.10,10.0,West,17.3,-,N/A,,Clear,280,2013-02-28 06:25:00
11:46 PM,3.2,-5.8,66,30.10,10.0,West,13.8,-,N/A,,Clear,270,2013-02-28 06:46:00